[[{"header":{"parameterUnit":"m.s-1","parameterCategory":1,"la1":30.2991,"la2":30.254,"lo1":-89.0895,"lo2":-89.0444,"dy":0.0017,"dx":0.0017,"nx":28,"ny":28,"refTime":"2025-11-20T09:00:00:Z","depth":0,"parameterNumber":2,"parameterNumberName":"U-component_of_WINDS"},"data":[0,0,0,0,0,0,0,0,0,0,0,0,0,0,0,0,0,0,0,0,0,0,0,0,0,0,0,0,0,0,0,0,0,0,0,0,0,0,0,0,0,0,0,0,0,0,0,0,0,0,0,0,0,0,0,0,0,0,-0.2358,-0.2359,0,-0.2395,-0.2395,-0.2396,-0.2395,-0.2394,-0.2394,-0.2393,-0.2432,-0.2434,-0.2435,0,0,0,0,0,0,0,0,0,0,0,0,0,-0.229,-0.2291,-0.2358,-0.2359,-0.2359,-0.2395,-0.2395,-0.2396,-0.2395,-0.2394,-0.2394,-0.2393,-0.2432,-0.2434,-0.2435,0,0,0,0,0,0,0,0,0,0,0,0,0,-0.2322,-0.2291,-0.2358,-0.2363,-0.2364,-0.2395,-0.2395,-0.2396,-0.2395,-0.2394,-0.2394,-0.2393,-0.2431,-0.2434,-0.2436,-0.2465,0,0,-0.2443,-0.2444,0,0,0,0,0,0,0,0,-0.232,-0.2325,-0.2362,-0.2363,-0.2364,-0.239,-0.2385,-0.2419,-0.2395,-0.2383,-0.2393,-0.2392,-0.2419,-0.2422,-0.2431,-0.2467,-0.2468,-0.2443,-0.2444,-0.2445,-0.2446,0,0,0,0,0,0,0,-0.2318,-0.2323,-0.2373,-0.2362,-0.2364,-0.2364,-0.2368,-0.2392,-0.2405,-0.2384,-0.2384,-0.2389,-0.2419,-0.2428,-0.2432,-0.2469,-0.2443,-0.2445,-0.2446,-0.2447,-0.2532,-0.2532,0,0,0,0,0,0,-0.2315,-0.2321,-0.2372,-0.2374,-0.234,-0.2366,-0.237,-0.2382,-0.2405,-0.2407,-0.2389,-0.2388,-0.2425,-0.2429,-0.2433,-0.2469,-0.2445,-0.2447,-0.2449,-0.2531,-0.2532,-0.2533,0,0,0,0,0,0,-0.2313,-0.2319,-0.237,-0.2348,-0.2354,-0.2368,-0.2381,-0.2383,-0.2392,-0.2408,-0.2411,-0.2396,-0.2425,-0.243,-0.2457,-0.247,-0.2448,-0.245,-0.253,-0.2531,-0.2532,-0.2541,0,0,0,0,0,0,-0.2311,-0.2319,-0.2329,-0.2348,-0.2355,-0.2393,-0.2382,-0.2384,-0.2396,-0.2395,-0.2415,-0.2418,-0.2424,-0.2454,-0.2459,-0.2473,-0.2452,-0.2528,-0.253,-0.2532,-0.254,-0.2543,-0.2545,0,0,0,0,0,-0.2309,-0.2331,-0.233,-0.2336,-0.2369,-0.2394,-0.2398,-0.2405,-0.2397,-0.2408,-0.2419,-0.2417,-0.2468,-0.2456,-0.2463,-0.2478,-0.2528,-0.253,-0.2532,-0.2539,-0.2542,-0.2545,0,0,0,0,0,0,-0.2314,-0.2333,-0.2332,-0.2361,-0.2376,-0.2394,-0.2408,-0.2408,-0.2426,-0.2424,-0.2432,-0.2437,-0.2464,-0.2473,-0.246,-0.2507,-0.2497,-0.25,-0.25,-0.2504,-0.2506,-0.2504,-0.2454,0,0,0,0,0,-0.2318,-0.2336,-0.2352,-0.2376,-0.2383,-0.2394,-0.2405,-0.2409,-0.2425,-0.2431,-0.2444,-0.246,-0.2479,-0.2492,-0.2511,-0.2541,-0.2546,-0.2554,-0.2557,-0.2559,-0.2562,-0.258,-0.2584,-0.2539,-0.2539,-0.2539,0,0,-0.2327,-0.234,-0.2351,-0.2377,-0.2389,-0.2408,-0.24,-0.242,-0.2435,-0.2435,-0.2461,-0.2471,-0.2489,-0.2518,-0.2532,-0.2527,-0.2576,-0.2562,-0.2563,-0.2565,-0.2582,-0.2586,-0.259,-0.2541,-0.254,-0.254,0,0,-0.2354,-0.2365,-0.2386,-0.2398,-0.2416,-0.2424,-0.2429,-0.2447,-0.2453,-0.248,-0.248,-0.2498,-0.2531,-0.2545,-0.2556,-0.2588,-0.2588,-0.2594,-0.2608,-0.2625,-0.2629,-0.2632,-0.2644,-0.2648,-0.2597,-0.2597,-0.2597,0,-0.2364,-0.2392,-0.2397,-0.2418,-0.243,-0.243,-0.2452,-0.2464,-0.2487,-0.2496,-0.249,-0.2532,-0.2544,-0.2577,-0.2585,-0.2594,-0.26,-0.2592,-0.2627,-0.2631,-0.2634,-0.2645,-0.265,-0.2597,-0.2597,-0.2597,-0.2597,0,-0.2403,-0.2423,-0.2438,-0.246,-0.2473,-0.2494,-0.2504,-0.2517,-0.252,-0.2528,-0.2555,-0.257,-0.2592,-0.26,-0.2603,-0.2633,-0.263,-0.2626,-0.2616,-0.2639,-0.265,-0.2654,-0.2598,-0.2598,-0.2598,-0.2598,0,0,-0.2434,-0.2459,-0.2465,-0.2475,-0.2495,-0.2511,-0.2532,-0.2553,-0.2565,-0.2581,-0.26,-0.2628,-0.2624,-0.2637,-0.2641,-0.2656,-0.2682,-0.265,-0.2651,-0.2656,-0.2717,-0.272,-0.2725,-0.2681,-0.2682,-0.2683,-0.2716,0,-0.2464,-0.2501,-0.2507,-0.254,-0.2559,-0.256,-0.2579,-0.2593,-0.2602,-0.2619,-0.2629,-0.2649,-0.2642,-0.265,-0.2665,-0.2675,-0.2694,-0.2673,-0.27,-0.2701,-0.2696,-0.2731,-0.2735,-0.2765,-0.272,-0.2721,-0.2721,0,-0.2503,-0.252,-0.2555,-0.2573,-0.2581,-0.2598,-0.2618,-0.2634,-0.2651,-0.2656,-0.2671,-0.2673,-0.2696,-0.2685,-0.2717,-0.2703,-0.2714,-0.2721,-0.2723,-0.2726,-0.2713,-0.2736,-0.2775,-0.2779,-0.2728,-0.2728,-0.2727,0,-0.2523,-0.2554,-0.258,-0.2588,-0.261,-0.2622,-0.2631,-0.2647,-0.266,-0.2678,-0.2686,-0.2706,-0.2718,-0.2734,-0.2742,-0.2733,-0.2774,-0.2763,-0.278,-0.278,-0.2789,-0.2788,-0.2831,-0.2795,-0.2795,-0.2795,-0.2795,0,-0.2555,-0.2577,-0.2589,-0.2605,-0.2629,-0.2636,-0.266,-0.267,-0.2684,-0.2702,-0.2704,-0.2721,-0.2731,-0.2749,-0.2756,-0.2782,-0.2787,-0.2792,-0.2794,-0.2793,-0.2792,-0.2801,-0.2799,-0.2796,-0.2796,-0.2796,-0.2796,0,-0.2582,-0.2591,-0.2618,-0.2636,-0.2641,-0.2659,-0.2674,-0.269,-0.2698,-0.2721,-0.2727,-0.274,-0.2762,-0.2772,-0.2799,-0.2803,-0.2834,-0.2833,-0.2828,-0.2828,-0.2845,-0.2843,-0.2894,-0.2902,-0.2861,-0.2861,-0.2861,0,-0.2603,-0.2619,-0.2639,-0.2651,-0.266,-0.268,-0.2692,-0.27,-0.2713,-0.2734,-0.2747,-0.2769,-0.2787,-0.2823,-0.2835,-0.2856,-0.2857,-0.2873,-0.286,-0.2858,-0.2858,-0.2857,-0.2859,-0.2876,-0.2876,-0.2876,-0.2877,0,-0.2638,-0.2642,-0.266,-0.2679,-0.2694,-0.271,-0.2726,-0.2736,-0.2746,-0.2761,-0.2783,-0.2797,-0.2825,-0.2847,-0.2869,-0.2879,-0.288,-0.2881,-0.2886,-0.2885,-0.2881,-0.2884,-0.2835,-0.288,-0.2879,-0.2879,-0.2879,-0.2879,-0.2663,-0.2678,-0.2694,-0.2714,-0.2727,-0.2741,-0.2757,-0.2767,-0.2785,-0.2808,-0.2812,-0.2836,-0.2853,-0.2882,-0.2894,-0.2913,-0.2909,-0.2916,-0.2918,-0.292,-0.2921,-0.2877,-0.2917,-0.2917,-0.2917,-0.2917,-0.2917,0,-0.2699,-0.271,-0.2728,-0.275,-0.2766,-0.2764,-0.2781,-0.2795,-0.2816,-0.2832,-0.2849,-0.2876,-0.2897,-0.2911,-0.2933,-0.2946,-0.2947,-0.2952,-0.2951,-0.2954,-0.2923,-0.2917,-0.295,-0.295,-0.295,-0.295,-0.295,-0.295,-0.272,-0.2746,-0.2751,-0.2783,-0.2794,-0.2817,-0.2827,-0.2841,-0.2853,-0.2882,-0.29,-0.2909,-0.2924,-0.2947,-0.2967,-0.2971,-0.2979,-0.2984,-0.2987,-0.2959,-0.2956,-0.2952,-0.2946,-0.2985,-0.2985,-0.3016,-0.3016,-0.3017]},{"header":{"parameterUnit":"m.s-1","parameterCategory":1,"la1":30.2991,"la2":30.254,"lo1":-89.0895,"lo2":-89.0444,"dy":0.0017,"dx":0.0017,"nx":28,"ny":28,"refTime":"2025-11-20T09:00:00:Z","depth":0,"parameterNumber":3,"parameterNumberName":"V-component_of_WINDS"},"data":[0,0,0,0,0,0,0,0,0,0,0,0,0,0,0,0,0,0,0,0,0,0,0,0,0,0,0,0,0,0,0,0,0,0,0,0,0,0,0,0,0,0,0,0,0,0,0,0,0,0,0,0,0,0,0,0,0,0,0.4629,0.4627,0,0.4503,0.4501,0.45,0.4421,0.442,0.442,0.4419,0.4297,0.4294,0.4291,0,0,0,0,0,0,0,0,0,0,0,0,0,0.4807,0.4804,0.4629,0.4627,0.4626,0.4503,0.4501,0.45,0.4421,0.442,0.442,0.4419,0.4297,0.4294,0.4291,0,0,0,0,0,0,0,0,0,0,0,0,0,0.471,0.4803,0.4629,0.4571,0.4565,0.4503,0.4501,0.4499,0.4421,0.442,0.4419,0.4419,0.4299,0.4294,0.429,0.4278,0,0,0.4277,0.4275,0,0,0,0,0,0,0,0,0.4716,0.4704,0.4581,0.4575,0.4568,0.4477,0.4519,0.4425,0.4421,0.4476,0.4419,0.4418,0.4357,0.4348,0.4326,0.4272,0.4267,0.4277,0.4274,0.4273,0.4271,0,0,0,0,0,0,0,0.4722,0.4709,0.4579,0.458,0.4572,0.4554,0.4539,0.4501,0.4422,0.4471,0.4465,0.4451,0.4354,0.4331,0.4323,0.4265,0.4277,0.4273,0.4271,0.4269,0.4195,0.4196,0,0,0,0,0,0,0.4737,0.4715,0.4583,0.4575,0.4641,0.4551,0.4535,0.4507,0.4422,0.4409,0.4451,0.4447,0.4338,0.4328,0.4318,0.4298,0.4273,0.4269,0.4266,0.4195,0.4195,0.4196,0,0,0,0,0,0,0.4742,0.4726,0.4588,0.4643,0.4624,0.4549,0.4518,0.4505,0.4481,0.4408,0.4394,0.4442,0.4337,0.4324,0.4288,0.4293,0.4267,0.4263,0.4194,0.4195,0.4196,0.4258,0,0,0,0,0,0,0.4747,0.4728,0.4722,0.4644,0.4622,0.4559,0.4518,0.4503,0.4474,0.4467,0.4395,0.4383,0.4336,0.4295,0.4284,0.4287,0.4259,0.4193,0.4194,0.4195,0.4256,0.4261,0.4266,0,0,0,0,0,0.4754,0.4746,0.4722,0.4706,0.4611,0.4559,0.4547,0.4491,0.4474,0.4468,0.442,0.4385,0.4294,0.4292,0.4279,0.428,0.4193,0.4194,0.4195,0.4253,0.426,0.4266,0,0,0,0,0,0,0.4829,0.4735,0.4707,0.4673,0.4624,0.4546,0.4536,0.45,0.4457,0.4453,0.4388,0.4373,0.4343,0.4308,0.4307,0.4264,0.4239,0.4238,0.4288,0.4294,0.4299,0.4308,0.4256,0,0,0,0,0,0.4841,0.4804,0.4725,0.4703,0.468,0.4612,0.4587,0.4549,0.4496,0.4476,0.4426,0.4378,0.4339,0.4315,0.4274,0.425,0.4234,0.4245,0.425,0.4255,0.4255,0.424,0.4244,0.42,0.42,0.42,0,0,0.4867,0.4811,0.4792,0.4717,0.4674,0.464,0.4595,0.4561,0.4535,0.4471,0.4433,0.4395,0.4338,0.4308,0.4292,0.4278,0.4263,0.4257,0.4261,0.4258,0.4241,0.4245,0.4249,0.4201,0.4201,0.4201,0,0,0.4896,0.4849,0.4825,0.4784,0.4719,0.4674,0.4669,0.4595,0.4566,0.4527,0.4478,0.4448,0.4381,0.4342,0.4314,0.4328,0.4294,0.4317,0.4345,0.4331,0.4334,0.4337,0.4342,0.4344,0.4317,0.4317,0.4317,0,0.4936,0.488,0.4819,0.4786,0.4754,0.4693,0.467,0.4633,0.456,0.454,0.4525,0.444,0.4397,0.4357,0.436,0.4339,0.4332,0.4325,0.4338,0.434,0.4342,0.4346,0.4348,0.432,0.432,0.4319,0.4319,0,0.4933,0.4895,0.4884,0.4812,0.4779,0.4752,0.4688,0.4663,0.4627,0.4584,0.4546,0.4492,0.4439,0.4427,0.4393,0.4382,0.4375,0.435,0.4324,0.435,0.4353,0.4354,0.4325,0.4324,0.4323,0.4322,0,0,0.5006,0.4899,0.4897,0.4863,0.4787,0.4758,0.4728,0.4674,0.4654,0.4606,0.458,0.4525,0.4501,0.4469,0.443,0.4417,0.4432,0.4393,0.4391,0.4402,0.4417,0.4437,0.4439,0.4409,0.4409,0.4409,0.4422,0,0.5023,0.4964,0.4908,0.4869,0.4833,0.4775,0.4749,0.4701,0.466,0.4626,0.4582,0.4543,0.4514,0.4494,0.448,0.4433,0.4434,0.4432,0.4386,0.4385,0.4401,0.4441,0.4461,0.4476,0.4423,0.4423,0.4423,0,0.5036,0.4987,0.4945,0.4872,0.4855,0.4832,0.4779,0.4746,0.4691,0.4662,0.4626,0.4584,0.4552,0.4529,0.4484,0.4484,0.4462,0.4436,0.4436,0.4429,0.4406,0.4436,0.4479,0.4482,0.4424,0.4424,0.4424,0,0.5093,0.5018,0.4982,0.4956,0.487,0.4855,0.482,0.4763,0.4735,0.4689,0.467,0.4622,0.4596,0.456,0.4508,0.4496,0.4468,0.4442,0.4445,0.4446,0.4442,0.4443,0.4483,0.4428,0.4428,0.4428,0.4428,0,0.5118,0.5095,0.5007,0.4985,0.4957,0.4894,0.4869,0.4828,0.4778,0.4749,0.4696,0.4671,0.4602,0.4569,0.4528,0.4497,0.4486,0.4463,0.4452,0.4467,0.447,0.4452,0.445,0.4429,0.4428,0.4428,0.4428,0,0.5178,0.5118,0.5075,0.4997,0.4977,0.496,0.4893,0.4871,0.4827,0.4791,0.4779,0.4711,0.4669,0.4612,0.4553,0.4526,0.45,0.4484,0.4518,0.4512,0.4518,0.4519,0.4548,0.4549,0.4494,0.4495,0.4495,0,0.5198,0.5178,0.5097,0.5072,0.5037,0.4998,0.4968,0.4906,0.4877,0.4812,0.4798,0.4751,0.471,0.4646,0.4593,0.4548,0.453,0.4543,0.4523,0.4539,0.453,0.4532,0.453,0.4548,0.4549,0.455,0.4551,0,0.524,0.5211,0.5168,0.5115,0.508,0.5036,0.499,0.4973,0.4901,0.4872,0.4827,0.4795,0.4734,0.4689,0.4636,0.4601,0.4565,0.4557,0.4556,0.4571,0.4592,0.4581,0.4532,0.4557,0.4556,0.4556,0.4556,0.4555,0.528,0.5259,0.5199,0.5153,0.5111,0.5069,0.5044,0.4996,0.4956,0.49,0.4866,0.4822,0.4768,0.4693,0.466,0.4627,0.4612,0.461,0.461,0.461,0.4615,0.4597,0.4617,0.4617,0.4617,0.4616,0.4616,0,0.532,0.5277,0.5236,0.5171,0.5136,0.5102,0.5049,0.5022,0.4983,0.4935,0.4895,0.4844,0.4799,0.4742,0.4694,0.4679,0.4661,0.4668,0.4669,0.4662,0.4631,0.4637,0.4684,0.4684,0.4684,0.4684,0.4684,0.4684,0.5336,0.5299,0.5263,0.5205,0.5163,0.5118,0.5091,0.5052,0.5013,0.4957,0.4919,0.4881,0.4829,0.4777,0.4736,0.472,0.4705,0.4718,0.4698,0.467,0.4664,0.4658,0.4664,0.4716,0.4716,0.4732,0.4732,0.4732]}]]